Starlink 30545

operational
NORAD ID: 58000 Int'l Des: 2023-153 Owner: SPXS Country: US Constellation: starlink
LEOCIRCULAR

Über Starlink 30545

Beschreibung wird geladen...

Live-Position

3D-Globus wird geladen...

Nächste Überflüge

Höhenverlauf

Altitude vs Time

uPlot chart will show altitude changes over time

Zweizeiliger Elementsatz

1 58000U 23153K 25304.70619576 .00000304 00000-0 37594-4 0 9991
2 58000 43.0044 49.6288 0001175 275.1430 84.9278 15.02537017115470
Epoch: 31. Okt. 2025 • Age: 25 hours

Aktueller Status

Höhe 559.4 km
Geschwindigkeit 7.58 km/s
Subsatellitenpunkt -5.24°S, 80.32°E
Startdatum 5. Okt. 2023
Alter 2 years
Typ internet

Technische Details

Klassifizierung Payload
Masse 730.00 kg
Trockenmasse 700.00 kg
Gesamtmasse 730.00 kg
Länge 0.30 m
Durchmesser 4.10 m
Spannweite 29.00 m
Form Box + pan
Hersteller SPXS
Bus-Typ Starlink V2M
Phasenstatus In Orbit
Besitzer/Staat SPXS/US

Große Konstellationen

Loading constellations...